Tracking 18840 objects as of 19-November-2017
HD Live streaming from Space Station
objects crossing your sky now

FENGYUN 1C DEB

Track FENGYUN 1C DEB now!
10-day predictions


NORAD ID: 30924
Int'l Code: 1999-025AZN
Perigee: 784.8 km
Apogee: 864.5 km
Inclination: 99.0 °
Period: 101.2 minutes
Semi major axis: 7195 km
RCS: 0.029 m2 (small)
Launch date: May 10, 1999
Source: People's Republic of China (PRC)
Launch site: Taiyaun Space Center, China (TSC)

Note: This is SATELLITE DEBRIS
aabbcc
Your satellite tracking list
Your tracking list is empty




NASA's NSSDC Master Catalog

Two Line Element Set (TLE):
1 30924U 99025AZN 17322.67665116 +.00001989 +00000-0 +90131-3 0  9990
2 30924 099.0024 356.2203 0055349 209.1458 271.0226 14.22325798550148
Source of the keplerian elements: AFSPC